{"data":{"norad_id":60532,"epoch":"2026-05-25T03:49:27.694848Z","epoch_age_seconds":71691,"freshness":"FRESH","line1":"1 60532U 24149BS  26145.15934832  .00002141  00000+0  20180-3 0  9990","line2":"2 60532  97.6847 220.5854 0002770  96.9307 263.2229 14.94839914 96514","mean_motion":14.94839914,"eccentricity":0.000277,"inclination_deg":97.6847,"raan_deg":220.5854,"arg_perigee_deg":96.9307,"mean_anomaly_deg":263.2229,"bstar":0.0002018,"rev_number":9651,"period_min":96.331385489082,"perigee_km":580.94148850419,"apogee_km":584.79788620898,"semimajor_km":6961.0066873566,"source":"CELESTRAK","updated_at":"2026-05-25T13:38:02.145061Z"}}